Location: Rotheul
(50.2849°N, 11.2349°E)
Time: 15:22:20
(UTC+02:00)

ISS - Visible Passes

Search period start: 22 October 2020 00:00
Search period end: 31 October 2020 23:00
Orbit: 417 x 420 km, 51.6° (Epoch: 22 October)

Date Brightness Start Highest point End Pass type
(mag) Time Alt. Az. Time Alt. Az. Time Alt. Az.
23 Oct -1.2 06:52:54 10° SSW 06:55:28 21° SE 06:58:04 10° E visible
24 Oct -0.9 06:06:04 10° S 06:07:56 14° SE 06:09:48 10° ESE visible
25 Oct -2.6 05:53:19 10° SW 05:56:30 41° SSE 05:59:43 10° E visible
26 Oct -2.1 05:07:10 19° SSW 05:08:52 29° SSE 05:11:50 10° E visible
27 Oct -1.4 04:21:43 20° SE 04:21:43 20° SE 04:23:50 10° E visible
27 Oct -3.7 05:54:41 12° WSW 05:57:40 76° SSE 06:01:03 10° ENE visible
28 Oct -3.4 05:09:07 41° SSW 05:09:58 57° SSE 05:13:17 10° ENE visible
29 Oct -1.8 04:23:28 29° ESE 04:23:28 29° ESE 04:25:28 10° E visible
29 Oct -3.8 05:56:26 16° W 05:58:58 75° N 06:02:20 10° ENE visible
30 Oct -3.9 05:10:43 64° W 05:11:11 87° NNW 05:14:34 10° ENE visible
31 Oct -1.8 04:24:58 30° E 04:24:58 30° E 04:26:48 10° ENE visible
31 Oct -3.6 05:57:55 18° W 06:00:18 67° N 06:03:39 10° E visible
